Home   Weather   Apeldoorn   Past weeks

Flag for Netherlands Past Weather in Apeldoorn, Netherlands — Yesterday and Last 2 Weeks

Now
23 °F

Light snow. Low clouds.


Feels Like: 17 °F
Forecast: 20 / 29 °F
Wind: 5 mph from Southeast

Location: Deelen

Current Time: Jan 18, 2017 at 12:37:01 am

Latest Report: Jan 17, 2017 at 11:55 pm


Visibility: 0 mi

Pressure: 30.69 "Hg

Humidity: 100%

Dew Point: 23 °F

Location of ApeldoornLocation

Past Weather in Apeldoorn — Graph

°F

Apeldoorn Temperature Yesterday

Maximum temperature yesterday: 30 °F (at 1:55 pm)
Minimum temperature yesterday: 23 °F (at 8:55 pm)
Average temperature yesterday: 25 °F

High & Low Weather Summary for the Past Weeks

 TemperatureHumidityPressure
High48 °F (Jan 11, 12:55 pm)100% (Jan 2, 11:25 pm)30.72 "Hg (Jan 2, 11:25 pm)
Low18 °F (Jan 6, 3:25 am)64% (Jan 6, 1:25 pm)29.00 "Hg (Jan 13, 12:55 am)
Average34 °F91%30.11 "Hg
* Reported Jan 2 11:25 pm — Jan 17 11:25 pm, Apeldoorn, Weather by CustomWeather, © 2017

Note: Actual official high and low records may vary slightly from our data, if they occured in-between our weather recording intervals... More about our weather records

Advertising

Apeldoorn Weather History for the Previous 24 Hours

Scroll right to see more
 ConditionsComfort  
Time TempWeatherWind HumidityBarometerVisibility
11:25 pm
Tue, Jan 17
23 °FIce fog.3 mph100%30.69 "Hg1 mi
10:55 pm23 °FIce fog.5 mph100%30.69 "Hg1 mi
10:25 pm23 °FIce fog.5 mph100%30.69 "Hg1 mi
9:55 pm23 °FIce fog.6 mph100%30.69 "Hg1 mi
9:25 pm23 °FIce fog.5 mph100%30.69 "Hg1 mi
8:55 pm23 °FIce fog.6 mph100%30.69 "Hg1 mi
8:25 pm25 °FIce fog.6 mph93%30.69 "Hg1 mi
7:55 pm25 °FIce fog.7 mph100%30.69 "Hg1 mi
7:25 pm25 °FIce fog.6 mph100%30.69 "Hg1 mi
6:55 pm25 °FIce fog.5 mph100%30.69 "Hg1 mi
6:25 pm25 °FIce fog.7 mph100%30.66 "Hg2 mi
5:55 pm27 °FIce fog.3 mph93%30.66 "Hg2 mi
5:25 pm27 °FIce fog.3 mph93%30.66 "Hg3 mi
4:55 pm28 °FIce fog.3 mph86%30.66 "Hg3 mi
4:25 pm28 °FIce fog.3 mph86%30.66 "Hg3 mi
3:55 pm28 °FIce fog.3 mph86%30.66 "Hg3 mi
3:25 pm28 °FIce fog.2 mph86%30.66 "Hg3 mi
2:55 pm28 °FIce fog.3 mph86%30.66 "Hg3 mi
2:25 pm28 °FIce fog.2 mph86%30.66 "Hg3 mi
1:55 pm30 °FIce fog.2 mph80%30.66 "Hg3 mi
1:25 pm27 °FIce fog.2 mph86%30.66 "Hg3 mi
12:55 pm27 °FIce fog.1 mph86%30.66 "Hg3 mi
12:25 pm27 °FIce fog.3 mph86%30.66 "Hg3 mi
11:55 am27 °FIce fog.3 mph86%30.66 "Hg3 mi
11:25 am25 °FIce fog.2 mph93%30.66 "Hg2 mi
10:55 am25 °FIce fog.1 mph93%30.66 "Hg2 mi
10:25 am25 °FIce fog.2 mph86%30.66 "Hg2 mi
9:55 am25 °FIce fog.3 mph93%30.63 "Hg2 mi
9:25 am25 °FIce fog.1 mph93%30.63 "Hg3 mi
8:55 am25 °FIce fog.3 mph93%30.63 "Hg2 mi
8:25 am25 °FIce fog.5 mph93%30.60 "Hg2 mi
7:55 am25 °FIce fog.5 mph93%30.60 "Hg3 mi
7:25 am25 °FIce fog.5 mph93%30.60 "Hg3 mi
6:55 am25 °FIce fog.3 mph93%30.60 "Hg2 mi
6:25 am25 °FIce fog.6 mph93%30.57 "Hg2 mi
5:55 am25 °FIce fog.6 mph100%30.57 "Hg2 mi
5:25 am25 °FIce fog.6 mph100%30.57 "Hg2 mi
4:55 am25 °FIce fog.5 mph100%30.57 "Hg2 mi
4:25 am25 °FIce fog.7 mph100%30.57 "Hg2 mi
3:55 am25 °FIce fog.5 mph100%30.54 "Hg1 mi
3:25 am25 °FIce fog.3 mph100%30.54 "Hg1 mi
2:55 am25 °FIce fog.5 mph100%30.54 "Hg1 mi
2:25 am25 °FIce fog.5 mph100%30.54 "Hg2 mi
1:25 am25 °FIce fog.5 mph93%30.54 "Hg2 mi
12:55 am25 °FIce fog.2 mph93%30.54 "Hg2 mi
12:25 am25 °FIce fog.3 mph93%30.54 "Hg2 mi
Weather by CustomWeather, © 2017

See weather overviewHow to use our weather pages